Location: ????????
(56.1167°N, 38.6333°E)
Time: 21:21:10
(UTC+00:00)

Cosmos 1814 Rocket - Pass Details

Date: 18 November 2025
Orbit: 740 x 783 km, 74.1° (Epoch: 14 December)

Event Time Altitude Azimuth Distance (km) Brightness Sun altitude
Rises 16:15:28 0° 331° (NNW) 3,256 7.7 -25.0°
Reaches altitude 10° 16:17:52 10° 334° (NNW) 2,331 6.8 -25.3°
Enters shadow 16:22:38 64° 21° (NNE) 867 4.1 -26.0°
